Starlink 4640

operational
NORAD ID: 53728 Int'l Des: 2022-107 Owner: SPXS Country: US Constellation: starlink
LEOCIRCULAR

About Starlink 4640

Description loading...

Live Position

Loading 3D Globe...

Upcoming Passes

Altitude History

Altitude vs Time

uPlot chart will show altitude changes over time

Two-Line Element Set

1 53728U 22107AE 25347.63984957 -.00000898 00000-0 -38326-4 0 9992
2 53728 53.2176 280.3668 0001428 95.0086 265.1069 15.08837829181568
Epoch: Dec 13, 2025 • Age: 16 hours

Current Status

Altitude 551.2 km
Velocity 7.59 km/s
Sub-Earth Point -33.88°S, 58.37°E
Launch Date Sep 5, 2022
Age 3.2 years
Type internet

Technical Details

Classification Payload
Mass 305.00 kg
Dry Mass 290.00 kg
Total Mass 305.00 kg
Length 0.20 m
Diameter 2.80 m
Span 9.00 m
Shape Box + pan
Manufacturer SPXS
Bus Type Starlink
Phase Status In Orbit
Owner/State SPXS/US

Large Constellations

Loading constellations...